Weather Roundup
Issued by NWS

Home | Current Version | Previous Version | Graphics & Text | Print | Product List | Glossary Off
Versions: 1 2 3 4 5 6 7 8 9 10 11 12 13 14 15 16 17 18 19 20 21 22 23 24 25 26 27 28 29 30 31 32 33 34 35 36 37 38 39 40 41 42 43 44 45 46 47 48 49 50

749
NZUS93 KARX 100810
HRRWXR

CURRENT HOURLY OBSERVATIONS ACROSS
MUCH OF THE UPPER MISSISSIPPI VALLEY
NATIONAL WEATHER SERVICE LA CROSSE WI
200 AM CST WED FEB 10 2016


...SOUTHEAST MINNESOTA...


CITY           SKY/WX    TMP DP  RH WIND       PRES   REMARKS
ROCHESTER      CLOUDY     0  -8  69 NW10      30.06F WCI -16
ROCHESTER/MAYO FAIR       6  -4  65 NW9       30.08F WCI  -8
WINONA         PTCLDY     9   0  66 NW3       30.12F
AUSTIN         CLOUDY     1  -2  85 NW5       30.09S WCI  -8
ALBERT LEA     CLOUDY     5   0  78 NW6       30.09F WCI  -6
DODGE CENTER   CLOUDY     1  -6  71 N7        30.07F WCI -11
PRESTON        CLOUDY     0  -8  70 NW10      30.07S WCI -16
OWATONNA       CLOUDY     1  -6  71 CALM      30.10F
FARIBAULT        N/A      3  -2  78 NW3       30.11F
$$

...ELSEWHERE IN MINNESOTA...


CITY           SKY/WX    TMP DP  RH WIND       PRES   REMARKS
MINNEAPOLIS    PTCLDY     6  -4  63 N7        30.13F WCI  -6
INTNL FALLS    PTCLDY    -9 -14  78 N6        30.13S WCI -22
DULUTH         CLOUDY    -6 -11  79 N9        30.04R WCI -23
RED WING       CLOUDY     3  -6  66 CALM      30.12S
REDWOOD FALLS  CLOUDY    10   1  67 N6        30.14F WCI   0
MANKATO        PTCLDY     5  -2  72 NW6       30.12F WCI  -6
WORTHINGTON    CLOUDY    16   7  67 N7        30.09F WCI   6
FAIRMONT       CLOUDY     9   1  72 N8        30.11S WCI  -4
$$

...SOUTHWEST WISCONSIN...


CITY           SKY/WX    TMP DP  RH WIND       PRES   REMARKS
LA CROSSE      PTCLDY     4  -6  63 NW12      30.09S WCI -12
PRAIRIE DU CHI PTCLDY     5  -5  63 NW6       30.09S WCI  -6
BOSCOBEL       PTCLDY     1  -5  75 W3        30.09R
LONE ROCK      CLOUDY     6  -3  66 W8        30.06R WCI  -7
PLATTEVILLE    CLEAR      5  -2  72 NW8       30.03R WCI  -8
FORT MC COY    PTCLDY     5  -4  67 NW9       30.06S WCI  -9
CAMP DOUGLAS   CLOUDY     6   0  74 W14       30.03R WCI -11
VIROQUA        FAIR       3  -6  67 NW13      30.01R WCI -14
WIS DELLS      CLOUDY     8   0  69 NW6       29.99S WCI  -2
$$

...ELSEWHERE IN WISCONSIN...


CITY           SKY/WX    TMP DP  RH WIND       PRES   REMARKS
MILWAUKEE      MOCLDY    12   1  61 NW13      29.94S WCI  -3
MADISON        CLOUDY    10  -1  61 NW9       29.98F WCI  -3
GREEN BAY      CLEAR      9  -3  58 NW12      29.94S WCI  -6
EAU CLAIRE     PTCLDY     2  -7  66 NW8       30.07F WCI -12
BLACK RVR FLS  CLOUDY     4  -6  62 NW5       30.06R WCI  -5
MEDFORD        CLOUDY     5  -2  72 NW9       29.95S WCI  -9
WAUSAU         CLOUDY     9   0  67 NW12      29.95R WCI  -6
WIS RAPIDS     CLOUDY     9  -2  61 NW12      30.00R WCI  -6
MARSHFIELD     MOCLDY     7  -4  60 NW15      29.97R WCI -10
RICE LAKE      CLOUDY     2  -5  73 NW6       30.08F WCI -10
$$

...NORTHEAST IOWA...


CITY           SKY/WX    TMP DP  RH WIND       PRES   REMARKS
WATERLOO       PTCLDY     4  -2  76 W7        30.11F WCI  -8
DUBUQUE        CLEAR      7  -2  66 NW13      30.03F WCI  -9
DECORAH        PTCLDY     1  -6  71 NW7       30.06S WCI -11
MASON CITY     CLOUDY     4   0  83 NW12      30.11F WCI -12
CHARLES CITY   CLOUDY     3  -2  78 NW10      30.10F WCI -12
OELWEIN        CLOUDY     1  -6  71 NW10      30.09S WCI -14
$$

...ELSEWHERE IN IOWA...


CITY           SKY/WX    TMP DP  RH WIND       PRES   REMARKS
DES MOINES     MOCLDY    15   7  70 N5        30.16S WCI   8
IOWA CITY      CLEAR      9   1  70 NW8       30.13F WCI  -3
FORT DODGE     CLOUDY    10   7  85 N3        30.13F
MARSHALLTOWN   CLEAR      6   1  80 NW9       30.12F WCI  -8
CEDAR RAPIDS   CLEAR      5   1  83 NW9       30.10S WCI  -9
$$

...NORTHERN ILLINOIS...


CITY           SKY/WX    TMP DP  RH WIND       PRES   REMARKS
CHICAGO-OHARE  PTCLDY    13   3  64 NW17G26   29.95R WCI  -4
CHICAGO-MIDWAY PTCLDY    15   3  59 NW10      29.96R WCI   2
MOLINE         CLEAR     11   0  61 NW12      30.09F WCI  -3
ROCKFORD       PTCLDY    10   0  63 NW12      30.01F WCI  -5
PEORIA         CLEAR     11   2  67 NW10      30.07F WCI  -3
$$

NOTE: "FAIR" INDICATES FEW OR NO CLOUDS BELOW 12,000 FEET WITH NO
SIGNIFICANT WEATHER AND/OR OBSTRUCTIONS TO VISIBILITY. WIND
SPEEDS ARE IN MILES-PER-HOUR.




USA.gov is the U.S. government's official web portal to all federal, state and local government web resources and services.